ROMMA est une association bénévole à but non lucratif. Votre soutien est indispensable : ADHERER à ROMMA ou FAIRE un DON

Le Versoud - (38, Isère)

Vallée du Grésivaudan (220 m)   Longitude: 05° 51' 44" E   Latitude: 45° 13' 06" N Station partenaire n°6
 

Détail journalier du     <<     >>

Température Precipitation Humidité Pression Vent Dir Rafale Dir. rafale Ensol.
Heure (°C) (mm) (%) (hPa) (km/h) (km/h) (min)
01:00 17.705910091NE18NE0
02:00 17.4057101008NE0
03:00 16.40601010016NO0
04:00 16.20601011011SSO0
05:00 15.2064101100---0
06:00 14.7066101200---0
07:00 13.4073101208NO0
08:00 13.2078101300---0
09:00 13.1076101308ONO0
10:00 13.3077101402ONO0
11:00 13.007710141---18SO0
12:00 13.107810141SSO15SSO0
13:00 14.30.2781014011SO0
14:00 16.6067101405OSO30
15:00 18.206110131ENE10NNO50
16:00 19.305810121NNO18N60
17:00 20.305610121N15ONO55
18:00 20.10561012010ENE0
19:00 19.605610122NE15NE35
20:00 18.90591012013N5
21:00 18.2064101208NNE25
22:00 16.4073101200---0
23:00 14.9080101200---0
minuit 14.2083101200---0

Graphique du 06-06-2019

 

Serveur OMMA